Vertical_Velocity
17 31 -3 4 57 -6 4 7 2 0 3 -6 -5 -0 0 -3 1 13 -4 3 8 -4 6 8 1 3 3 1 3 -1 5 -0 -6 -5 -2 -0 1 4 2 2 1 -0 -7
46 49 35 33 10 5 15 4 11 10 9 6 1 8 12 14 14 13 15 11 6 -3 1 2 5 12 -1 3 2 1 0 2 -4 -4 -3 -3 -4 -0 -1 2 2 2 -4
-14 -7 5 23 11 21 19 -7 -1 11 6 12 10 11 9 5 0 3 4 1 2 1 1 -1 -3 -3 2 -1 2 3 3 3 1 -3 -5 -5 -2 -2 -1 0 0 -1 -1
-8 -10 13 11 3 -1 -1 12 14 3 -0 3 8 8 4 4 5 5 2 0 0 -2 -1 -1 -1 1 -3 1 -1 -1 -2 0 2 -0 -2 -3 -4 -3 0 -0 1 3 1
6 -6 -2 9 6 1 -5 2 7 -1 9 12 9 4 4 3 5 2 -0 1 -1 -5 -2 -2 -2 -3 -2 0 1 3 1 -1 -0 2 4 1 -1 -1 1 -2 -3 3 -1
-6 7 -5 -1 -6 -8 -5 -6 -2 0 2 6 16 9 4 -0 4 2 1 -1 -0 4 4 1 1 1 0 2 2 -1 -2 -1 -0 1 2 0 -2 -2 -2 -2 1 -2 4
-2 -4 -1 -8 -3 4 -2 -7 -3 -1 -2 -5 -1 -3 -2 -0 1 1 -1 -1 -0 -1 1 -0 -2 -1 -2 -2 -1 0 3 4 1 -2 -3 -1 -4 -2 0 -1 1 -1 3
-8 1 7 1 -4 1 -3 3 -2 -3 -1 -6 -4 -0 -3 -6 -1 -0 -4 -6 -5 -3 -1 -3 -1 -0 -1 -2 1 3 3 1 -3 -4 -2 0 -2 -2 0 2 -1 5 -0
4 4 3 -8 3 3 -0 -2 4 0 2 -4 -3 -6 -1 -6 2 1 -0 -1 -3 -1 1 2 6 3 1 4 -2 2 -0 -1 3 2 2 1 2 1 1 5 -1 -2 4
-5 4 3 -6 -1 1 8 3 4 -0 2 -6 -4 -3 -5 -1 1 -6 0 2 -3 2 5 7 4 -3 1 -0 -7 0 0 0 -2 5 4 1 1 -3 -0 3 -1 -1 -3
-0 0 1 0 -4 -2 1 3 2 -1 -2 3 1 8 4 1 -3 1 4 2 3 7 3 3 1 -6 -4 -5 0 -1 2 3 1 4 5 0 -2 -0 -2 0 -0 -3 -1
3 -11 -0 1 2 2 -8 -4 1 -7 -9 -1 8 4 2 2 -3 8 2 4 3 0 -2 1 -2 -2 -1 -1 -3 -2 5 2 5 1 5 -6 -2 4 1 -1 -2 -2 -3
-9 -10 -5 -4 -4 -11 -9 -5 -5 -3 0 4 1 5 -7 6 1 1 2 0 -3 -1 0 -2 3 -0 2 -2 -3 -0 -3 5 2 -6 -1 1 3 3 -0 -1 -2 -0 4
1 -0 -4 -2 0 -0 -1 3 2 1 4 4 -0 5 1 -0 -3 3 4 -0 3 0 4 -3 -0 -1 -1 -3 3 0 1 0 -0 1 2 2 -1 -3 -1 2 -0 -4 -1
-4 -3 0 -3 -5 -3 -0 -0 0 -1 2 1 -3 1 -2 -4 2 7 0 -1 -0 5 2 1 1 0 0 3 -2 -3 0 1 1 1 -1 0 -1 -2 -4 -4 -1 1 -2
-2 -2 -2 -2 -1 5 1 -3 2 1 -2 0 0 7 7 0 3 0 3 3 3 6 3 3 0 2 3 2 0 -1 -2 -2 1 1 -2 -3 -1 2 3 0 -4 -5 -4
0 -0 -1 4 5 5 8 13 3 11 8 5 5 3 -5 -4 1 2 3 3 3 2 2 1 4 5 1 -2 -3 -3 -3 -2 -3 -0 2 3 1 -2 -4 -3 -5 -4 -1
-0 -0 0 1 2 3 6 9 3 1 1 -1 1 3 3 2 1 1 1 2 3 1 -0 1 -0 -1 -2 -4 -3 -1 -2 1 2 1 -1 -1 -3 -3 -4 -6 -5 -2 1
4 -3 1 -0 3 2 7 0 -2 -0 2 1 -2 -2 -1 -2 -2 1 2 0 -0 -1 1 1 -1 -4 -3 -2 -1 -1 0 1 0 -1 -3 -4 -6 -7 -4 -3 -1 -0 -1
0 0 -0 -1 4 5 7 5 4 3 -2 -2 -1 0 0 0 0 2 1 -2 -1 1 -0 -2 -3 -1 -2 -0 0 0 -1 -1 -2 -3 -5 -5 -7 -6 -4 -1 -0 0 1
-1 1 1 -0 -1 0 2 -1 -3 -3 -1 -0 1 2 3 0 -2 -3 -3 -2 -2 -2 -1 -3 -1 1 0 1 -0 -1 -0 -0 -2 -4 -3 -3 -5 -3 -1 0 0 -1 -2
1 -1 -1 0 0 1 -1 -0 -2 -2 -2 0 -1 -3 -3 -2 -0 0 -0 -1 -2 -3 -1 -1 -2 -2 -2 -2 0 0 -1 -2 -2 -1 -1 -0 -1 1 1 1 -0 -1 -2
3 0 0 1 0 0 -2 -3 -2 -3 -1 1 0 0 0 -2 -1 -2 -2 -2 0 -0 -2 -1 2 2 2 1 -3 -4 -4 -3 -2 -2 -1 -1 -2 -1 -1 0 -3 -1 -2
1 -0 -1 0 1 0 -0 -1 -2 0 0 1 1 2 -1 -1 0 -3 -3 -1 -1 -0 -0 1 1 -2 -4 -4 -4 -4 -3 -3 -4 -3 -3 -3 -2 -2 -2 -0 -0 1 0
-1 -1 1 1 0 1 -1 -2 -1 -1 -0 -0 -2 -3 -1 -1 -2 -0 0 2 2 2 1 -1 -1 -3 -3 -2 -4 -4 -3 -3 -3 -2 -3 -3 -3 -3 -1 0 -1 0 -2
-2 -0 1 0 0 0 -0 -0 -2 -2 -2 -2 -2 -1 -1 -0 0 1 1 0 -1 -2 -2 -2 -2 -3 -4 -3 -3 -5 -4 -5 -4 -3 -2 -1 -0 -1 -1 -0 -1 0 -0
Height
5618 5613 5614 5609 5604 5615 5620 5622 5625 5627 5628 5630 5634 5637 5638 5640 5640 5641 5642 5643 5641 5641 5643 5641 5641 5642 5640 5639 5638 5637 5636 5633 5631 5630 5629 5626 5624 5622 5619 5614 5610 5605 5603
5591 5593 5600 5595 5596 5598 5603 5608 5611 5613 5615 5616 5619 5621 5623 5624 5626 5626 5627 5629 5625 5626 5627 5626 5628 5627 5627 5627 5626 5623 5621 5619 5616 5615 5613 5610 5608 5606 5604 5600 5595 5589 5585
5576 5578 5581 5576 5578 5582 5585 5592 5595 5598 5601 5602 5605 5606 5607 5608 5609 5610 5612 5612 5612 5611 5611 5612 5612 5612 5613 5611 5609 5607 5606 5604 5601 5597 5595 5593 5593 5591 5587 5583 5579 5574 5568
5560 5565 5565 5565 5567 5567 5571 5574 5581 5585 5586 5588 5588 5589 5591 5593 5595 5596 5597 5597 5597 5598 5598 5598 5598 5598 5596 5596 5594 5593 5592 5590 5586 5582 5579 5576 5575 5573 5569 5566 5562 5557 5551
5550 5552 5551 5551 5555 5557 5560 5562 5564 5569 5573 5575 5574 5574 5574 5577 5579 5581 5582 5584 5584 5585 5585 5585 5585 5583 5583 5582 5581 5579 5576 5573 5570 5566 5563 5559 5557 5554 5550 5546 5544 5542 5537
5536 5536 5535 5538 5543 5545 5547 5547 5550 5556 5561 5561 5561 5561 5563 5565 5565 5566 5569 5571 5573 5574 5573 5573 5571 5570 5569 5567 5565 5563 5560 5557 5553 5550 5547 5543 5539 5536 5533 5530 5527 5526 5523
5519 5520 5521 5521 5527 5531 5533 5536 5539 5539 5544 5550 5551 5552 5553 5555 5556 5557 5558 5559 5560 5559 5559 5559 5557 5555 5554 5552 5550 5547 5543 5540 5537 5533 5529 5525 5522 5520 5517 5514 5510 5510 5507
5502 5506 5508 5508 5510 5514 5518 5520 5522 5526 5528 5532 5537 5539 5540 5541 5542 5544 5544 5546 5546 5546 5545 5544 5541 5539 5537 5534 5532 5529 5526 5523 5521 5517 5514 5511 5507 5505 5501 5499 5496 5495 5490
5484 5487 5489 5488 5496 5498 5501 5506 5506 5510 5513 5516 5520 5524 5525 5527 5527 5528 5529 5529 5530 5530 5528 5526 5523 5519 5518 5516 5516 5513 5510 5507 5505 5501 5497 5495 5493 5490 5488 5485 5480 5477 5472
5469 5472 5474 5477 5481 5485 5487 5490 5493 5493 5495 5499 5504 5507 5508 5509 5511 5512 5512 5511 5511 5511 5510 5508 5505 5502 5502 5501 5502 5498 5496 5491 5490 5486 5483 5481 5479 5476 5472 5469 5463 5458 5454
5459 5458 5460 5462 5466 5470 5472 5475 5478 5481 5482 5484 5487 5489 5490 5491 5493 5494 5493 5493 5493 5492 5492 5491 5490 5490 5490 5488 5486 5482 5480 5476 5476 5474 5471 5469 5464 5459 5456 5451 5446 5441 5436
5444 5445 5448 5450 5451 5453 5457 5461 5463 5465 5467 5469 5470 5470 5472 5473 5474 5475 5476 5476 5476 5476 5477 5477 5477 5477 5476 5474 5471 5469 5468 5466 5464 5462 5458 5454 5449 5445 5440 5434 5427 5422 5416
5432 5435 5436 5437 5440 5441 5442 5442 5445 5448 5451 5453 5455 5456 5455 5458 5461 5462 5463 5462 5463 5463 5464 5464 5463 5463 5461 5461 5462 5459 5458 5456 5453 5449 5444 5439 5435 5430 5423 5417 5410 5404 5396
5421 5423 5425 5427 5427 5427 5427 5428 5429 5432 5434 5437 5440 5444 5445 5446 5448 5449 5449 5450 5451 5451 5451 5452 5452 5452 5452 5451 5451 5449 5446 5443 5438 5434 5430 5425 5419 5413 5407 5400 5393 5385 5378
5410 5412 5414 5415 5416 5417 5416 5416 5416 5418 5419 5421 5426 5430 5433 5434 5436 5436 5438 5438 5439 5441 5441 5442 5443 5441 5441 5441 5440 5436 5433 5430 5425 5421 5415 5410 5404 5397 5389 5382 5375 5367 5356
5401 5402 5404 5406 5407 5408 5408 5407 5406 5406 5409 5414 5418 5422 5423 5424 5425 5426 5428 5431 5433 5434 5434 5434 5434 5433 5432 5430 5427 5424 5420 5417 5413 5408 5401 5395 5388 5382 5374 5364 5354 5343 5334
5394 5395 5397 5398 5400 5401 5400 5400 5400 5401 5404 5409 5412 5415 5417 5420 5422 5424 5426 5427 5427 5427 5426 5426 5425 5423 5421 5419 5416 5412 5409 5404 5399 5394 5387 5380 5372 5363 5353 5342 5332 5322 5313
5388 5389 5391 5393 5394 5395 5396 5396 5396 5399 5402 5405 5408 5411 5414 5416 5417 5418 5419 5420 5420 5419 5418 5417 5417 5415 5411 5408 5405 5400 5396 5391 5385 5378 5370 5361 5352 5343 5333 5322 5311 5304 5297
5384 5386 5387 5388 5390 5392 5393 5394 5396 5398 5401 5403 5405 5407 5409 5411 5412 5412 5413 5413 5413 5412 5411 5409 5407 5404 5400 5397 5393 5388 5383 5377 5370 5362 5353 5343 5333 5323 5313 5303 5295 5287 5280
5380 5382 5384 5385 5386 5388 5390 5392 5394 5396 5398 5400 5402 5403 5404 5405 5406 5406 5406 5406 5406 5404 5402 5399 5397 5393 5390 5386 5381 5375 5370 5363 5354 5345 5336 5326 5316 5306 5296 5287 5278 5270 5262
5377 5379 5380 5381 5384 5386 5388 5390 5392 5393 5395 5396 5397 5398 5398 5399 5399 5399 5399 5398 5397 5396 5393 5390 5387 5383 5379 5374 5369 5363 5355 5347 5339 5330 5320 5310 5299 5288 5278 5269 5261 5253 5244
5371 5373 5375 5377 5379 5382 5384 5386 5388 5389 5390 5391 5391 5392 5392 5392 5392 5393 5391 5390 5389 5387 5383 5380 5376 5372 5367 5361 5355 5349 5342 5333 5325 5316 5305 5293 5282 5271 5261 5252 5243 5234 5224
5366 5367 5369 5372 5375 5377 5379 5381 5383 5384 5384 5385 5385 5385 5385 5386 5385 5385 5383 5382 5379 5377 5373 5369 5365 5360 5355 5350 5343 5336 5327 5319 5309 5299 5288 5275 5263 5253 5243 5233 5223 5214 5204
5361 5363 5366 5368 5371 5372 5374 5376 5377 5377 5378 5379 5379 5380 5380 5379 5379 5376 5374 5373 5370 5366 5363 5359 5355 5349 5343 5336 5329 5321 5312 5303 5292 5282 5269 5257 5245 5235 5224 5214 5203 5193 5183
5357 5359 5362 5364 5365 5367 5369 5370 5370 5371 5372 5373 5373 5372 5372 5371 5369 5368 5366 5364 5361 5357 5353 5348 5343 5337 5330 5323 5316 5306 5297 5287 5276 5264 5251 5239 5227 5216 5205 5194 5183 5173 5163
5354 5356 5358 5359 5361 5362 5363 5364 5365 5365 5365 5366 5366 5365 5365 5364 5362 5360 5357 5354 5350 5346 5342 5337 5331 5325 5318 5310 5301 5291 5281 5270 5258 5246 5233 5221 5209 5197 5186 5176 5166 5157 5148